CAPE
0 0 0 0 0 0 0 0 0 0 0 0 0 0 0 0 0 0 0 0 28 38 23 33 61 67 63 20 1 4 48 2 49 78 148 315 379 300 232 140 111 325 383
0 0 0 0 0 0 0 0 0 0 0 0 0 0 0 0 0 0 0 0 0 0 0 0 78 106 11 0 0 0 0 0 0 121 157 335 378 309 357 303 260 202 330
0 0 0 0 0 0 0 0 0 0 0 0 0 0 0 0 0 0 0 0 0 0 4 158 137 78 2 1 0 0 0 2 1 94 228 242 212 89 15 0 0 0 121
0 0 0 0 0 0 0 0 0 0 0 0 0 0 0 0 0 0 0 0 0 0 0 0 0 0 7 25 0 1 4 10 96 187 238 159 50 1 0 0 0 0 33
0 0 0 0 0 0 0 0 0 0 0 0 0 0 0 0 0 0 0 0 0 0 0 0 0 17 44 30 3 9 0 15 93 225 174 71 49 0 0 0 0 0 0
0 0 0 0 0 0 0 0 0 0 0 0 0 0 0 0 0 0 0 0 0 0 0 0 0 29 127 4 132 193 326 282 185 143 53 82 11 0 0 0 0 0 0
0 0 0 0 0 0 0 0 0 0 0 0 0 0 0 0 0 0 4 1 0 0 0 0 0 22 126 91 70 134 189 167 129 31 41 0 0 0 0 0 0 0 0
0 0 0 0 0 0 0 0 0 0 0 0 0 0 0 0 0 0 8 1 0 0 0 0 14 54 82 74 46 127 55 2 0 0 0 0 0 0 0 0 0 0 0
0 0 0 0 0 0 0 0 0 0 0 0 0 0 0 0 0 0 10 0 0 0 0 25 35 44 54 10 0 0 0 0 0 0 0 0 0 0 0 0 0 0 0
0 0 0 0 0 0 0 0 1 1 5 9 6 4 8 0 0 0 0 3 0 0 0 31 22 12 0 0 0 0 0 0 0 0 0 0 0 0 0 0 0 0 0
0 0 0 0 1 2 1 1 0 0 3 10 8 5 3 0 0 0 4 0 0 0 0 17 0 0 0 0 0 0 0 0 0 0 0 0 0 0 0 0 0 0 0
0 0 0 0 1 1 0 4 1 0 1 3 3 0 1 0 0 0 10 0 0 0 0 51 31 0 0 0 0 0 0 0 0 0 0 0 0 0 0 0 0 8 0
1 1 1 1 1 0 2 2 0 5 10 4 0 0 0 0 0 0 0 0 0 0 0 1 51 4 19 15 29 0 0 0 0 0 0 0 0 0 0 0 0 0 2
1 1 1 1 2 0 2 2 3 0 2 6 0 0 0 0 0 1 31 0 0 1 0 0 19 95 76 0 0 0 0 15 8 0 0 0 0 0 0 0 0 5 28
1 2 1 2 2 1 2 3 3 3 9 12 7 0 0 0 0 0 0 0 0 0 0 0 0 10 43 16 0 0 0 0 0 0 0 0 0 0 0 0 2 0 212
3 3 2 3 4 2 3 2 1 0 0 0 0 6 4 4 0 0 0 0 0 0 0 0 0 2 4 9 2 0 0 0 0 0 0 0 0 0 0 0 0 34 249
3 3 3 3 3 3 2 3 3 2 0 0 0 0 1 0 0 0 0 0 0 0 0 0 0 0 3 0 0 0 0 0 0 0 0 0 0 0 0 0 3 55 203
3 5 5 4 4 3 1 1 4 4 2 0 0 0 0 0 0 0 0 0 0 0 1 0 0 0 0 0 0 0 0 0 0 0 0 0 0 0 0 0 0 11 104
6 7 6 4 3 2 2 1 3 3 3 2 1 0 0 0 0 0 0 0 0 0 0 0 0 0 0 0 0 0 0 0 0 0 0 0 0 0 0 2 6 3 38
8 7 5 4 3 3 2 1 2 4 3 1 0 2 0 0 0 0 0 0 0 0 0 0 0 0 0 0 0 0 0 0 0 0 0 0 0 0 0 9 12 0 12
6 4 1 0 2 2 2 0 2 3 1 1 2 0 0 0 0 0 0 0 0 0 0 0 0 0 0 0 0 0 0 0 0 0 0 0 0 0 11 25 18 64 89
3 2 0 2 1 2 1 1 1 2 1 1 0 0 0 0 0 0 0 0 0 0 0 0 0 0 0 0 0 0 0 0 0 0 0 0 0 7 26 14 8 53 23
5 2 0 1 1 1 1 2 1 1 1 0 0 0 0 0 0 0 0 0 0 0 0 0 0 0 0 0 0 0 0 0 0 0 0 0 0 8 9 16 41 46 33
6 5 3 0 1 1 1 1 1 0 0 0 0 0 0 3 1 0 0 0 0 0 0 0 0 0 0 0 0 0 0 0 0 0 0 0 1 0 20 41 47 5 1
7 7 5 3 3 0 0 0 1 0 0 0 0 0 0 0 2 0 0 0 0 0 0 0 0 0 0 0 0 0 0 0 0 0 0 8 4 0 14 33 4 1 1
7 6 7 6 5 3 2 1 0 0 0 0 0 0 0 0 0 1 0 0 0 0 0 0 0 0 0 0 0 0 0 0 0 0 0 0 0 1 0 1 0 0 0
CIN
0 0 0 0 0 0 0 0 0 0 0 0 0 0 0 0 0 0 0 0 -83 -99 -146 -121 -88 -92 -107 -75 0 -10 -34 -7 -62 -89 -118 -104 -96 -87 -112 -125 -123 -81 -92
0 0 0 0 0 0 0 0 0 0 0 0 0 0 0 0 0 0 0 0 0 0 0 0 -52 -74 -116 0 0 0 0 -3 -3 -53 -65 -95 -89 -100 -85 -92 -121 -109 -83
0 0 0 0 0 0 0 0 0 0 0 0 0 0 0 0 0 0 0 0 0 0 -13 -8 -4 -10 -10 -18 0 -4 -3 -128 -15 -57 -43 -89 -107 -136 -69 0 0 0 -116
0 0 0 0 0 0 0 0 0 0 0 0 0 0 0 0 0 0 0 0 0 0 0 0 0 0 -13 -73 0 -88 -152 -109 -41 -50 -58 -53 -134 -6 0 0 0 0 -137
0 0 0 0 0 0 0 0 0 0 0 0 0 0 0 0 0 0 0 0 0 0 0 0 0 -34 -126 -163 -115 -225 0 -147 -69 -26 -29 -78 -138 0 0 0 0 0 0
0 0 0 0 0 0 0 0 0 0 0 0 0 0 0 0 0 0 0 0 0 0 0 0 0 -77 -118 -140 -133 -136 -106 -104 -63 -41 -62 -92 -57 0 0 0 0 0 0
0 0 0 0 0 0 0 0 0 0 0 0 0 0 0 0 0 0 -53 -14 0 0 0 0 0 -1 -74 -188 -142 -69 -46 -68 -62 -97 -125 0 0 0 0 0 0 0 0
0 0 0 0 0 0 0 0 0 0 0 0 0 0 0 0 0 0 -57 -21 0 0 0 0 -11 -8 -84 -178 -163 -95 -134 -63 0 0 0 0 0 0 0 0 0 0 0
0 0 0 0 0 0 0 0 0 0 0 0 0 0 0 0 0 0 -45 0 0 0 0 -3 -25 -50 -141 -121 0 0 0 0 0 0 0 0 0 0 0 0 0 0 0
0 0 0 0 0 0 0 0 -1 -1 -1 -2 -4 -9 -8 0 0 0 -35 -45 0 0 0 -46 -44 -77 0 0 0 0 0 0 0 0 0 0 0 0 0 0 0 0 0
0 0 0 0 0 -1 0 -1 0 0 -2 -2 -4 -13 -25 0 0 0 -23 0 -7 0 0 -72 0 0 0 0 0 0 0 0 0 0 0 0 0 0 0 0 0 0 0
0 0 0 0 0 0 0 0 0 0 -1 -2 -1 0 -8 0 0 0 -15 -1 0 0 0 -58 -61 0 0 0 0 0 0 0 0 0 0 0 0 0 0 0 0 -176 0
0 0 0 0 0 0 0 0 0 0 0 -1 -4 -1 0 0 0 0 -3 0 0 0 0 -12 -56 -94 -98 -123 -80 0 0 0 0 0 0 0 0 0 0 0 0 0 -329
0 0 0 0 0 0 0 0 0 0 0 -5 -7 0 0 0 0 -15 -28 -6 0 0 0 0 -64 -74 -97 0 0 0 0 -95 -100 0 0 0 0 0 0 0 0 -255 -180
0 0 0 0 0 0 0 0 0 -1 -1 -2 -5 0 0 0 0 0 0 0 0 0 0 0 0 -54 -103 -100 -22 0 0 0 0 0 0 0 0 0 0 0 -270 0 -50
0 0 0 0 0 0 0 0 0 -1 -1 0 0 -7 -10 -19 0 0 0 0 0 0 0 0 0 -67 -19 -81 -28 0 0 0 0 0 0 0 0 0 0 0 0 -129 -13
0 0 0 0 0 0 0 0 0 -1 0 0 0 -6 -21 0 0 0 0 0 0 0 0 0 0 0 -85 -3 0 0 0 0 0 0 0 0 0 0 0 0 -40 -63 -1
0 0 0 0 0 0 0 0 0 0 0 0 0 0 0 0 0 0 0 0 0 0 0 0 0 0 0 0 0 0 0 0 0 0 0 0 0 0 0 0 0 -30 -11
0 0 0 0 0 0 0 0 0 0 -1 -1 -2 -3 0 0 0 0 0 0 0 0 0 0 0 0 0 0 0 0 0 0 0 0 0 0 0 0 0 -32 -41 -36 -14
0 0 0 0 0 0 0 0 0 0 -1 0 0 -1 0 0 0 0 0 0 0 0 0 0 0 0 0 0 0 0 0 0 0 0 0 0 0 0 -5 -40 -38 0 -20
0 0 0 0 0 0 0 0 0 0 0 0 -1 0 0 0 0 0 0 0 0 0 0 0 0 0 0 0 0 0 0 0 0 0 0 0 0 0 -37 -40 -36 -39 -19
0 0 0 0 0 0 0 0 0 0 0 0 0 0 0 0 0 0 0 0 0 0 0 0 0 0 0 0 0 0 0 0 0 0 0 0 0 -30 -30 -39 -70 -36 -42
0 0 0 0 0 0 0 0 0 0 -1 0 0 0 0 -12 -5 0 0 0 0 0 0 0 0 0 0 0 0 0 0 0 0 0 0 0 0 -27 -28 -40 -47 -8 -1
0 0 0 0 0 0 0 0 0 0 0 0 0 0 -1 -17 -22 0 0 0 0 0 0 0 0 0 0 0 0 0 0 0 0 0 0 0 -3 0 -80 -51 -18 -11 0
0 0 0 0 0 0 0 0 0 -3 0 0 0 0 0 0 -24 0 0 0 0 0 0 0 0 0 0 0 0 0 0 0 0 0 0 -15 -16 -1 -82 -12 -64 0 0
0 0 0 0 0 0 0 0 0 0 0 0 0 0 0 0 0 -19 0 0 0 0 0 0 0 0 0 0 0 0 0 0 0 0 0 -45 0 -114 -4 -21 0 0 0
Wind_Speed
27 28 29 30 30 29 30 32 33 33 33 34 36 37 39 39 39 39 39 39 41 42 40 40 38 31 30 27 26 28 33 34 25 41 29 28 22 16 18 17 15 21 32
27 28 29 30 30 30 32 32 33 35 34 35 37 38 40 41 40 40 41 39 39 41 41 40 36 31 29 27 29 29 29 30 26 44 33 28 23 22 21 20 21 23 26
29 29 30 31 31 31 32 34 36 36 37 36 38 40 41 41 41 40 40 39 38 35 36 37 39 36 36 38 37 35 34 24 25 27 35 28 25 22 24 26 22 24 31
33 36 36 33 34 35 35 36 37 37 39 40 39 40 41 43 43 42 41 41 39 39 39 39 40 42 50 42 31 28 17 21 22 28 29 27 27 25 24 24 27 24 24
39 40 40 39 39 39 39 39 39 40 42 42 42 42 42 42 42 43 43 45 44 42 40 43 45 44 39 37 31 25 18 21 27 24 29 26 24 21 20 19 24 26 28
44 45 45 45 43 42 41 39 39 41 43 43 42 42 42 42 44 48 47 46 45 45 50 51 53 44 36 35 28 28 25 20 22 25 26 24 21 20 20 22 24 27 27
47 47 47 48 47 45 44 42 41 40 39 38 41 41 43 43 47 48 47 45 44 46 48 51 60 37 36 34 33 28 24 19 21 13 11 16 16 17 18 21 22 22 24
47 48 47 48 49 46 46 44 41 39 40 43 43 42 43 45 47 42 44 43 41 41 41 54 9 31 30 25 20 22 20 15 9 5 8 10 12 12 14 19 22 26 26
51 53 52 49 48 46 44 42 42 42 43 44 44 44 43 42 38 36 41 39 35 33 35 25 12 20 21 25 19 16 10 6 9 7 7 7 8 10 13 19 25 26 28
58 51 48 47 46 41 39 40 40 41 44 43 46 41 36 34 30 36 38 34 31 29 24 22 20 19 18 18 17 12 9 7 7 8 11 11 8 10 16 17 21 26 27
44 45 40 35 34 34 36 36 35 34 33 35 33 32 28 27 29 35 32 32 31 27 25 17 26 22 21 13 10 9 8 9 10 8 8 9 11 13 18 18 20 22 24
36 34 34 34 32 33 34 33 34 33 27 28 28 30 25 26 33 37 32 30 26 32 29 28 7 11 14 12 10 10 5 7 9 8 11 14 12 17 19 20 23 23 24
36 34 32 32 30 32 30 29 28 24 24 18 21 20 22 30 33 37 31 31 31 37 35 32 28 21 16 20 11 15 11 12 13 11 12 16 14 12 17 21 22 29 31
35 34 32 29 29 29 24 23 22 19 18 17 17 15 24 31 33 33 27 26 30 33 32 29 29 12 29 23 20 20 18 9 10 13 14 19 18 15 20 21 25 28 29
28 29 26 27 28 29 20 18 14 13 18 15 17 23 30 29 29 28 27 24 26 28 27 23 23 26 24 27 24 20 21 17 15 16 20 21 22 22 23 23 24 28 26
28 26 23 23 24 23 21 18 10 6 10 21 18 16 17 24 26 23 19 21 24 25 24 25 21 21 24 27 28 25 19 17 19 19 22 23 21 24 24 21 24 26 23
24 20 22 21 20 19 18 13 12 13 12 5 6 14 26 30 29 26 22 18 25 25 28 32 32 24 25 22 19 20 19 16 18 23 22 23 24 24 21 21 24 23 17
18 16 16 18 17 16 15 9 11 1 17 11 17 28 35 38 37 33 26 21 24 26 27 29 27 28 29 21 25 26 24 23 23 22 21 22 22 21 19 22 25 22 17
17 14 15 15 14 12 12 14 19 3 18 14 15 24 33 38 40 36 31 26 26 25 27 27 28 28 30 31 33 32 29 27 26 20 20 23 24 19 21 25 25 23 20
16 13 15 13 11 10 6 8 23 10 17 24 26 27 25 30 36 36 34 28 25 24 23 24 26 21 26 28 26 21 16 19 21 21 24 25 25 21 24 26 25 20 21
17 16 17 14 13 12 11 9 3 19 27 20 23 25 26 25 33 38 36 33 26 23 20 25 24 16 16 17 13 14 18 21 20 22 24 25 23 23 24 25 24 24 25
18 20 27 22 19 17 13 14 17 22 25 25 22 20 22 24 30 38 38 34 29 27 25 25 25 21 15 15 15 17 18 20 21 21 21 23 23 24 26 26 27 27 28
22 24 31 28 22 20 18 19 21 23 26 27 24 21 26 25 24 31 36 35 31 29 26 24 25 24 21 15 16 15 11 12 14 18 21 24 24 26 27 26 26 28 29
26 26 27 28 26 22 21 21 22 24 25 26 24 23 19 22 26 27 29 33 33 30 29 27 21 19 17 14 17 16 16 17 17 19 21 23 24 25 26 22 21 22 13
26 28 27 26 25 23 23 22 22 24 24 24 27 22 22 23 23 28 29 31 34 33 34 32 26 21 19 20 21 20 21 22 23 24 24 24 23 23 21 19 17 12 4
23 25 27 27 26 22 19 18 22 24 24 23 24 20 18 23 25 25 27 27 29 35 36 35 33 34 33 30 28 28 28 28 28 27 26 24 24 23 21 20 25 20 6
Wind_Direction
303 304 304 305 307 307 307 308 310 311 309 309 310 309 309 308 308 304 302 300 294 291 287 287 286 283 278 276 282 283 273 266 275 254 279 272 281 285 293 299 296 298 292
301 300 300 302 304 303 303 304 307 307 309 307 309 308 307 306 306 304 301 299 297 293 290 283 281 278 273 274 278 284 286 260 256 248 268 270 277 288 295 296 298 301 300
303 300 299 299 299 300 300 302 303 302 304 305 305 305 305 306 306 304 301 300 298 296 294 288 280 273 267 270 286 284 274 259 247 265 261 271 277 291 293 296 300 297 285
310 304 301 300 299 297 298 299 300 300 301 302 302 303 302 301 303 304 300 297 295 294 294 291 283 272 267 270 269 274 249 243 250 261 264 271 279 289 293 295 296 293 300
310 310 309 308 305 302 301 299 298 297 297 299 299 299 299 298 299 300 298 293 291 293 294 294 287 271 262 255 256 254 236 243 254 260 264 272 283 289 294 300 298 297 296
307 305 305 305 304 303 302 300 298 298 298 297 297 298 298 300 299 296 294 291 290 291 297 295 291 263 241 239 244 249 252 249 254 258 263 273 279 287 294 299 300 298 301
307 307 307 306 305 303 302 300 297 296 296 295 294 295 297 299 299 298 291 289 290 295 301 302 286 244 225 238 245 243 247 248 249 254 261 277 288 291 295 296 300 303 302
310 309 309 308 305 305 304 301 299 297 295 294 293 294 296 298 297 295 289 285 289 297 310 307 261 216 217 219 225 228 230 230 157 256 275 289 296 299 301 301 301 298 300
310 308 307 307 305 303 301 300 298 296 295 292 291 292 294 295 296 293 282 280 286 300 303 265 223 209 200 201 205 208 165 160 251 264 280 298 315 319 318 307 291 291 295
307 310 311 310 308 307 305 304 303 299 296 292 289 289 286 289 293 283 275 273 274 279 265 201 211 205 199 151 148 151 156 207 233 255 267 285 315 330 316 318 305 294 291
316 315 316 318 316 314 312 309 306 302 302 297 291 286 285 287 286 271 269 268 261 253 239 229 185 133 138 145 162 170 173 219 238 253 279 304 324 334 321 316 310 305 300
323 323 322 322 322 319 315 310 308 307 301 298 292 283 281 281 273 256 256 267 253 237 225 217 237 149 143 148 187 202 185 223 244 266 283 298 339 329 315 307 295 302 306
326 324 325 326 326 324 319 314 310 309 308 296 293 285 280 271 261 240 251 256 237 224 223 217 179 141 208 212 206 222 227 239 248 273 300 309 339 357 327 311 305 281 288
327 327 326 328 329 329 324 316 313 311 304 299 290 288 273 259 242 235 244 245 234 226 227 228 217 182 212 220 227 230 236 249 268 283 302 301 316 337 318 317 299 288 292
333 332 330 328 328 329 330 319 314 311 297 289 283 274 258 251 236 235 239 245 238 231 228 226 221 217 218 221 230 239 243 253 269 282 278 289 298 303 309 316 307 297 295
337 338 337 334 333 331 334 326 314 256 280 284 281 278 272 239 227 234 245 249 237 228 224 218 218 219 220 222 226 239 252 262 269 278 279 286 312 295 300 314 307 304 303
341 338 336 338 336 334 336 334 323 335 286 225 270 276 251 232 228 233 241 248 231 223 220 218 222 229 227 232 239 244 252 265 276 274 283 291 300 296 315 312 306 310 314
344 337 340 344 345 343 336 336 326 262 289 286 277 257 234 225 224 228 233 238 230 224 222 224 224 224 227 237 240 246 256 264 270 277 290 292 302 309 314 306 305 316 316
353 353 356 356 358 358 350 337 303 321 279 282 274 250 227 220 218 223 229 231 225 228 226 227 227 230 232 234 236 238 249 256 256 276 286 292 294 307 305 302 308 309 307
5 355 354 356 2 12 27 2 277 293 272 251 237 229 229 223 221 222 223 228 230 232 231 227 225 234 235 238 241 252 258 263 270 286 286 288 284 299 295 303 309 318 301
15 14 17 19 32 38 42 119 69 260 230 245 234 225 225 226 222 219 219 222 230 231 234 228 229 230 231 234 242 259 266 272 276 283 284 283 284 291 296 302 311 287 266
33 35 34 42 56 63 90 110 142 230 224 223 225 231 226 227 221 216 218 222 228 228 228 228 228 229 234 241 253 263 275 276 276 283 287 281 286 290 296 303 282 268 256
47 49 47 53 67 78 100 130 171 193 195 215 221 224 217 223 225 218 218 221 223 224 227 235 228 229 237 247 254 262 279 289 291 285 279 277 287 294 287 256 253 245 237
53 57 59 61 71 84 102 123 141 161 171 195 215 214 224 224 222 221 222 221 223 224 225 225 228 232 235 243 244 253 263 269 278 284 279 278 287 293 274 243 239 246 220
62 62 64 66 72 83 96 114 131 145 157 182 199 220 220 218 222 221 223 224 223 225 222 221 227 235 241 238 244 252 255 259 266 269 273 279 291 298 244 218 248 227 182
67 66 66 69 73 82 98 117 126 132 139 158 191 220 228 215 212 216 221 223 225 222 222 224 228 226 226 234 240 245 251 251 250 252 266 282 270 232 234 192 197 218 193